軌道要素
Epoch 2009 Nov. 25.0 TT = JDT 2455160.5
T 2009 Nov. 5.14960 TT MPCW
q 2.2116230 (2000.0) P Q
n 0.14398864 Peri. 98.45869 +0.97948849 +0.01096981
a 3.6050992 Node 261.08729 -0.08445374 +0.92893152
e 0.3865292 Incl. 11.75109 +0.18294771 +0.37008903
P 6.85
From 105 observations 2002 July 12-2016 Nov. 6, mean residual 0".5.
|